Content
SEND FEEDBACK

Daily
Averages
Monthly
Summary
United States of America

BLACK HAWK, SOUTH DAKOTA


Home > North America > United States > South Dakota
Elevation: 3352 feet     Latitude: 44 05N     Longitude: 103 16W

WEATHER
 
SELECT A DAY
Number of Records: 208,815;   Date Range: 1/1/95 - 11/21/14
 
SHARE

PRINT THIS DATA

[ ← Previous Day ]
WEATHER ALMANAC - FEBRUARY 20, 2013
[ Next Day → ]
[ °C ]   °F
Weather ElementAverageHighLow
Temperature22.5 °F32.4 °F (1:55 pm)11.7 °F (2:55 am)
Dewpoint11.7 °F18.5 °F (11:55 pm)3.7 °F (1:55 am)
Humidity64.5 %79 % (11:55 pm)42 % (12:55 pm)
Barometer30.00 in30.09 in (1:55 am)29.94 in (1:55 pm)
Wind Speed19.4 mph25.3 mph (9:55 am)
Wind Gust31.1 mph (9:55 am)
Weather ElementAverage
Visibility10 mi
Wind DirectionSSE (165.6 °)

Weather ElementTotal
Precipitation---
Heating Degree Days43 (Base 65)
Averaged from 25 records on February 20, 2013
WEATHER CONDITIONS BREAKOUT
WIND DIRECTION BREAKOUT
WEATHER BY HOUR - FEBRUARY 20, 2013
[ °C ]   °F
Local TimeTemperatureDewpointHumidityBarometerVisibilityWind DirectionWind SpeedGust SpeedPrecipitationEventsConditions
1:55 AM13.1 °F3.7 °F66 %30.09 in10.0 miSouth (170°)19.6 mphMostly Cloudy
2:55 AM11.7 °F3.7 °F71 %30.07 in10.0 miSSE (160°)20.7 mphClear
3:55 AM12.7 °F4.6 °F70 %30.04 in10.0 miSouth (170°)20.7 mphClear
4:55 AM12.6 °F4.8 °F71 %30.04 in10.0 miSSE (160°)21.9 mph26.5 mphMostly Cloudy
5:55 AM12.4 °F4.6 °F71 %30.02 in10.0 miSSE (160°)20.7 mphMostly Cloudy
6:55 AM12.7 °F4.6 °F70 %30.04 in10.0 miSSE (160°)20.7 mphScattered Clouds
7:55 AM14.2 °F5.9 °F70 %30.04 in10.0 miSSE (150°)17.3 mphScattered Clouds
8:55 AM20.5 °F7.9 °F58 %30.01 in10.0 miSouth (170°)21.9 mph26.5 mphClear
9:55 AM23.2 °F7.7 °F52 %30.00 in10.0 miSouth (170°)25.3 mph31.1 mphMostly Cloudy
10:55 AM25.7 °F8.2 °F48 %29.99 in10.0 miSouth (170°)21.9 mph31.1 mphPartly Cloudy
11:55 AM27.9 °F9.3 °F46 %29.98 in10.0 miSouth (170°)23.0 mph29.9 mphPartly Cloudy
12:55 PM31.3 °F10.4 °F42 %29.96 in10.0 miSouth (170°)20.7 mph29.9 mphClear
1:55 PM32.4 °F12.0 °F43 %29.94 in10.0 miSouth (170°)20.7 mphPartly Cloudy
2:55 PM30.9 °F16.2 °F54 %29.94 in10.0 miSSE (160°)20.7 mph26.5 mphMostly Cloudy
3:55 PM28.8 °F15.4 °F58 %29.94 in10.0 miSouth (170°)20.7 mph27.6 mphOvercast
4:55 PM27.5 °F16.2 °F62 %29.96 in10.0 miSSE (160°)24.2 mph29.9 mphOvercast
5:55 PM26.6 °F16.3 °F65 %29.98 in10.0 miSouth (170°)16.1 mph27.6 mphOvercast
6:55 PM25.3 °F16.9 °F70 %29.99 in10.0 miSSE (160°)16.1 mph21.9 mphOvercast
7:13 PM24.8 °F17.6 °F74 %29.99 in10.0 miSSE (160°)18.4 mphOvercast
7:55 PM25.2 °F17.4 °F72 %30.00 in10.0 miSSE (160°)15.0 mphOvercast
8:55 PM25.0 °F17.8 °F74 %29.99 in10.0 miSouth (170°)15.0 mphOvercast
9:55 PM24.4 °F17.6 °F75 %30.00 in10.0 miSSE (160°)16.1 mph23.0 mphOvercast
10:48 PM24.8 °F17.6 °F74 %29.99 in10.0 miSouth (170°)16.1 mphOvercast
10:55 PM24.3 °F18.1 °F77 %30.00 in10.0 miSouth (170°)17.3 mphOvercast
11:55 PM24.1 °F18.5 °F79 %29.99 in10.0 miSouth (180°)15.0 mphOvercast
Hourly data recorded from KRCA, located miles away from Black Hawk, South Dakota







STORIES FROM OUR PARTNERS